Time,TemperatureF,DewpointF,PressureIn,WindDirection,WindDirectionDegrees,WindSpeedMPH,WindSpeedGustMPH,Humidity,HourlyPrecipIn,Conditions,Clouds,dailyrainin,SoftwareType,DateUTC
2013-04-10 00:00:00,49.5,39.8,30.01,ENE,68,0.0,2.5,69,0.00,,,0.00,WUHU216HW,2013-04-10 04:00:00,
2013-04-10 00:05:00,49.3,39.6,30.01,SE,135,0.4,1.8,69,0.00,,,0.00,WUHU216HW,2013-04-10 04:05:00,
2013-04-10 00:10:00,49.3,39.6,30.00,NNE,23,0.9,1.6,69,0.00,,,0.00,WUHU216HW,2013-04-10 04:10:00,
2013-04-10 00:15:00,49.3,40.0,30.00,NE,45,0.0,2.9,70,0.00,,,0.00,WUHU216HW,2013-04-10 04:15:00,
2013-04-10 00:20:00,49.1,39.8,29.99,NW,315,0.4,2.9,70,0.00,,,0.00,WUHU216HW,2013-04-10 04:20:00,
2013-04-10 00:25:00,49.0,40.0,29.98,NNE,23,4.5,4.5,71,0.00,,,0.00,WUHU216HW,2013-04-10 04:25:00,
2013-04-10 00:30:00,49.0,40.0,29.97,SSE,158,0.0,4.5,71,0.00,,,0.00,WUHU216HW,2013-04-10 04:30:00,
2013-04-10 00:35:00,48.8,39.8,29.99,North,0,0.0,4.5,71,0.00,,,0.00,WUHU216HW,2013-04-10 04:35:00,
2013-04-10 00:40:00,48.8,40.2,29.99,South,180,0.4,2.0,72,0.00,,,0.00,WUHU216HW,2013-04-10 04:40:00,
2013-04-10 00:45:00,48.6,40.0,30.00,SE,135,1.1,2.2,72,0.00,,,0.00,WUHU216HW,2013-04-10 04:45:00,
2013-04-10 00:50:00,48.6,40.0,30.00,ENE,68,0.2,2.2,72,0.00,,,0.00,WUHU216HW,2013-04-10 04:50:00,
2013-04-10 00:55:00,48.6,40.0,30.00,ESE,113,0.4,1.8,72,0.00,,,0.00,WUHU216HW,2013-04-10 04:55:00,
2013-04-10 01:00:00,48.6,40.0,30.00,SSE,158,0.0,2.0,72,0.00,,,0.00,WUHU216HW,2013-04-10 05:00:00,
2013-04-10 01:05:00,48.6,40.0,30.01,SSW,203,0.0,2.5,72,0.00,,,0.00,WUHU216HW,2013-04-10 05:05:00,
2013-04-10 01:10:00,48.6,40.0,30.00,SSW,203,0.9,2.5,72,0.00,,,0.00,WUHU216HW,2013-04-10 05:10:00,
2013-04-10 01:15:00,48.6,40.0,30.01,SSW,203,0.0,2.5,72,0.00,,,0.00,WUHU216HW,2013-04-10 05:15:00,
2013-04-10 01:20:00,48.6,40.0,30.00,South,180,0.0,2.5,72,0.00,,,0.00,WUHU216HW,2013-04-10 05:20:00,
2013-04-10 01:25:00,48.6,40.0,30.00,ENE,68,0.9,3.1,72,0.00,,,0.00,WUHU216HW,2013-04-10 05:25:00,
2013-04-10 01:30:00,48.6,40.0,30.01,SE,135,0.4,3.1,72,0.00,,,0.00,WUHU216HW,2013-04-10 05:30:00,
2013-04-10 01:35:00,48.6,40.0,30.01,NNW,338,0.0,2.9,72,0.00,,,0.00,WUHU216HW,2013-04-10 05:35:00,
2013-04-10 01:40:00,48.8,40.2,30.01,NNE,23,0.2,2.0,72,0.00,,,0.00,WUHU216HW,2013-04-10 05:40:00,
2013-04-10 01:45:00,48.8,40.2,30.01,WSW,248,0.0,2.0,72,0.00,,,0.00,WUHU216HW,2013-04-10 05:45:00,
2013-04-10 01:50:00,48.8,40.2,30.01,WSW,248,0.0,0.9,72,0.00,,,0.00,WUHU216HW,2013-04-10 05:50:00,
2013-04-10 01:55:00,48.8,40.2,30.01,North,0,0.0,0.4,72,0.00,,,0.00,WUHU216HW,2013-04-10 05:55:00,
2013-04-10 02:00:00,49.0,40.3,30.00,North,0,0.0,0.4,72,0.00,,,0.00,WUHU216HW,2013-04-10 06:00:00,
2013-04-10 02:05:00,49.0,40.3,30.01,North,0,0.2,0.7,72,0.00,,,0.00,WUHU216HW,2013-04-10 06:05:00,
2013-04-10 02:10:00,49.0,40.3,30.02,North,0,0.0,0.7,72,0.00,,,0.00,WUHU216HW,2013-04-10 06:10:00,
2013-04-10 02:15:00,49.0,40.3,30.02,North,0,0.0,0.2,72,0.00,,,0.00,WUHU216HW,2013-04-10 06:15:00,
2013-04-10 02:20:00,49.0,40.3,30.01,North,0,0.0,0.0,72,0.00,,,0.00,WUHU216HW,2013-04-10 06:20:00,
2013-04-10 02:25:00,49.0,40.3,30.01,ENE,68,0.0,0.9,72,0.00,,,0.00,WUHU216HW,2013-04-10 06:25:00,
2013-04-10 02:30:00,49.0,40.3,30.01,ENE,68,0.0,0.9,72,0.00,,,0.00,WUHU216HW,2013-04-10 06:30:00,
2013-04-10 02:35:00,49.0,40.3,30.01,NNE,23,0.0,0.0,72,0.00,,,0.00,WUHU216HW,2013-04-10 06:35:00,
2013-04-10 02:40:00,49.0,40.3,30.02,North,0,0.0,0.0,72,0.00,,,0.00,WUHU216HW,2013-04-10 06:40:00,
2013-04-10 02:45:00,48.8,40.4,30.02,North,0,0.0,1.1,73,0.00,,,0.00,WUHU216HW,2013-04-10 06:45:00,
2013-04-10 02:50:00,48.8,40.4,30.04,NNW,338,0.0,1.1,73,0.00,,,0.00,WUHU216HW,2013-04-10 06:50:00,
2013-04-10 02:55:00,48.8,40.8,30.03,NNW,338,0.0,0.0,74,0.00,,,0.00,WUHU216HW,2013-04-10 06:55:00,
2013-04-10 03:00:00,48.8,40.8,30.02,NNW,338,0.0,0.0,74,0.00,,,0.00,WUHU216HW,2013-04-10 07:00:00,
2013-04-10 03:05:00,48.6,41.0,30.03,NNW,338,0.0,0.0,75,0.00,,,0.00,WUHU216HW,2013-04-10 07:05:00,
2013-04-10 03:10:00,48.6,41.0,30.04,NNW,338,0.0,0.0,75,0.00,,,0.00,WUHU216HW,2013-04-10 07:10:00,
2013-04-10 03:15:00,48.4,41.1,30.06,NNW,338,0.0,0.0,76,0.01,,,0.01,WUHU216HW,2013-04-10 07:15:00,
2013-04-10 03:20:00,48.4,41.1,30.06,NNW,338,0.0,0.0,76,0.01,,,0.01,WUHU216HW,2013-04-10 07:20:00,
2013-04-10 03:25:00,48.4,41.1,30.05,NNW,338,0.0,0.0,76,0.02,,,0.02,WUHU216HW,2013-04-10 07:25:00,
2013-04-10 03:30:00,48.2,41.0,30.04,NE,45,0.0,1.1,76,0.03,,,0.03,WUHU216HW,2013-04-10 07:30:00,
2013-04-10 03:35:00,48.2,41.3,30.05,NE,45,0.0,1.1,77,0.04,,,0.04,WUHU216HW,2013-04-10 07:35:00,
2013-04-10 03:40:00,48.1,41.5,30.03,NE,45,0.0,0.0,78,0.05,,,0.05,WUHU216HW,2013-04-10 07:40:00,
2013-04-10 03:45:00,47.9,41.3,30.02,NE,45,0.4,0.7,78,0.05,,,0.05,WUHU216HW,2013-04-10 07:45:00,
2013-04-10 03:50:00,47.9,41.3,30.01,NE,45,0.0,0.7,78,0.05,,,0.05,WUHU216HW,2013-04-10 07:50:00,
2013-04-10 03:55:00,47.9,41.3,29.98,NE,45,0.0,0.4,78,0.06,,,0.06,WUHU216HW,2013-04-10 07:55:00,
2013-04-10 04:00:00,47.9,41.3,29.98,East,90,0.0,0.4,78,0.06,,,0.06,WUHU216HW,2013-04-10 08:00:00,
2013-04-10 04:05:00,47.7,41.5,29.98,SSW,203,0.0,1.1,79,0.06,,,0.06,WUHU216HW,2013-04-10 08:05:00,
2013-04-10 04:10:00,47.7,41.5,29.97,SSW,203,0.0,1.1,79,0.06,,,0.06,WUHU216HW,2013-04-10 08:10:00,
2013-04-10 04:15:00,47.5,41.7,29.98,SSW,203,0.7,1.1,80,0.05,,,0.06,WUHU216HW,2013-04-10 08:15:00,
2013-04-10 04:20:00,47.5,41.7,29.97,WNW,293,0.0,1.1,80,0.05,,,0.06,WUHU216HW,2013-04-10 08:20:00,
2013-04-10 04:25:00,47.3,41.5,29.98,WNW,293,0.0,1.1,80,0.03,,,0.06,WUHU216HW,2013-04-10 08:25:00,
2013-04-10 04:30:00,47.3,41.5,29.98,NW,315,0.7,1.1,80,0.02,,,0.06,WUHU216HW,2013-04-10 08:30:00,
2013-04-10 04:35:00,47.3,41.5,29.98,NNW,338,0.0,1.3,80,0.01,,,0.06,WUHU216HW,2013-04-10 08:35:00,
2013-04-10 04:40:00,47.3,41.5,29.98,NNW,338,0.0,1.3,80,0.01,,,0.06,WUHU216HW,2013-04-10 08:40:00,
2013-04-10 04:45:00,47.3,41.5,29.97,NNW,338,0.0,0.4,80,0.01,,,0.06,WUHU216HW,2013-04-10 08:45:00,
2013-04-10 04:50:00,47.3,41.8,29.97,NNW,338,0.4,0.4,81,0.00,,,0.06,WUHU216HW,2013-04-10 08:50:00,
2013-04-10 04:55:00,47.3,41.5,29.96,NNW,338,0.0,0.4,80,0.00,,,0.06,WUHU216HW,2013-04-10 08:55:00,
2013-04-10 05:00:00,47.3,41.8,29.95,East,90,0.0,0.4,81,0.00,,,0.06,WUHU216HW,2013-04-10 09:00:00,
2013-04-10 05:05:00,47.2,41.7,29.94,ENE,68,0.0,0.0,81,0.00,,,0.06,WUHU216HW,2013-04-10 09:05:00,
2013-04-10 05:10:00,47.2,41.7,29.96,NNE,23,0.0,1.1,81,0.00,,,0.06,WUHU216HW,2013-04-10 09:10:00,
2013-04-10 05:15:00,47.2,41.7,29.95,NNE,23,0.2,1.1,81,0.00,,,0.06,WUHU216HW,2013-04-10 09:15:00,
2013-04-10 05:20:00,47.2,41.7,29.96,North,0,0.0,0.7,81,0.00,,,0.06,WUHU216HW,2013-04-10 09:20:00,
2013-04-10 05:25:00,47.2,41.7,29.96,WNW,293,0.2,1.1,81,0.00,,,0.06,WUHU216HW,2013-04-10 09:25:00,
2013-04-10 05:30:00,47.2,41.7,29.96,NW,315,0.0,1.1,81,0.00,,,0.06,WUHU216HW,2013-04-10 09:30:00,
2013-04-10 05:35:00,47.2,41.7,29.96,NW,315,0.0,0.2,81,0.00,,,0.06,WUHU216HW,2013-04-10 09:35:00,
2013-04-10 05:40:00,47.3,41.8,29.96,NW,315,0.0,0.0,81,0.00,,,0.06,WUHU216HW,2013-04-10 09:40:00,
2013-04-10 05:45:00,47.3,41.8,29.96,North,0,0.0,0.0,81,0.00,,,0.06,WUHU216HW,2013-04-10 09:45:00,
2013-04-10 05:50:00,47.3,41.8,29.95,North,0,0.0,0.0,81,0.00,,,0.06,WUHU216HW,2013-04-10 09:50:00,
2013-04-10 05:55:00,47.3,42.1,29.95,North,0,0.0,0.0,82,0.00,,,0.06,WUHU216HW,2013-04-10 09:55:00,
2013-04-10 06:00:00,47.3,42.1,29.95,North,0,0.0,0.0,82,0.00,,,0.06,WUHU216HW,2013-04-10 10:00:00,
2013-04-10 06:05:00,47.2,41.9,29.95,North,0,0.0,0.0,82,0.00,,,0.06,WUHU216HW,2013-04-10 10:05:00,
2013-04-10 06:10:00,47.2,41.9,29.95,North,0,0.0,0.0,82,0.00,,,0.06,WUHU216HW,2013-04-10 10:10:00,
2013-04-10 06:15:00,47.2,41.9,29.96,NNW,338,0.0,0.0,82,0.00,,,0.06,WUHU216HW,2013-04-10 10:15:00,
2013-04-10 06:20:00,47.2,42.3,29.96,NNW,338,0.0,0.0,83,0.00,,,0.06,WUHU216HW,2013-04-10 10:20:00,
2013-04-10 06:25:00,47.2,42.3,29.96,NNW,338,0.0,0.0,83,0.00,,,0.06,WUHU216HW,2013-04-10 10:25:00,
2013-04-10 06:30:00,47.2,42.3,29.96,NNW,338,0.0,0.0,83,0.00,,,0.06,WUHU216HW,2013-04-10 10:30:00,
2013-04-10 06:35:00,47.3,42.1,29.96,NNW,338,0.0,0.0,82,0.00,,,0.06,WUHU216HW,2013-04-10 10:35:00,
2013-04-10 06:40:00,47.3,42.5,29.96,NNW,338,0.0,0.0,83,0.00,,,0.06,WUHU216HW,2013-04-10 10:40:00,
2013-04-10 06:45:00,47.5,42.6,29.97,North,0,0.0,0.0,83,0.00,,,0.06,WUHU216HW,2013-04-10 10:45:00,
2013-04-10 06:50:00,47.5,42.6,29.97,NNE,23,0.0,0.0,83,0.00,,,0.06,WUHU216HW,2013-04-10 10:50:00,
2013-04-10 06:55:00,47.5,42.6,29.98,North,0,0.0,0.0,83,0.00,,,0.06,WUHU216HW,2013-04-10 10:55:00,
2013-04-10 07:00:00,47.5,42.9,29.98,NNE,23,0.0,0.0,84,0.00,,,0.06,WUHU216HW,2013-04-10 11:00:00,
2013-04-10 07:05:00,47.5,42.6,29.98,NNE,23,0.0,0.0,83,0.00,,,0.06,WUHU216HW,2013-04-10 11:05:00,
2013-04-10 07:10:00,47.5,42.6,29.98,WNW,293,0.0,0.0,83,0.00,,,0.06,WUHU216HW,2013-04-10 11:10:00,
2013-04-10 07:15:00,47.5,42.6,29.98,WNW,293,0.0,0.0,83,0.00,,,0.06,WUHU216HW,2013-04-10 11:15:00,
2013-04-10 07:20:00,47.5,42.6,29.98,WNW,293,0.0,0.0,83,0.00,,,0.06,WUHU216HW,2013-04-10 11:20:00,
2013-04-10 07:25:00,47.7,43.1,29.98,WNW,293,0.0,0.0,84,0.00,,,0.06,WUHU216HW,2013-04-10 11:25:00,
2013-04-10 07:30:00,47.9,42.9,29.97,WNW,293,0.0,0.0,83,0.00,,,0.06,WUHU216HW,2013-04-10 11:30:00,
2013-04-10 07:35:00,47.9,43.3,29.98,WNW,293,0.0,0.0,84,0.00,,,0.06,WUHU216HW,2013-04-10 11:35:00,
2013-04-10 07:40:00,47.9,42.9,29.98,WNW,293,0.0,0.0,83,0.00,,,0.06,WUHU216HW,2013-04-10 11:40:00,
2013-04-10 07:45:00,48.1,43.5,29.99,NW,315,0.0,0.0,84,0.00,,,0.06,WUHU216HW,2013-04-10 11:45:00,
2013-04-10 07:50:00,48.2,43.6,29.98,NNW,338,0.0,1.1,84,0.00,,,0.06,WUHU216HW,2013-04-10 11:50:00,
2013-04-10 07:55:00,48.2,43.6,29.98,North,0,0.4,1.1,84,0.00,,,0.06,WUHU216HW,2013-04-10 11:55:00,
2013-04-10 08:00:00,48.4,43.7,29.98,North,0,0.0,0.7,84,0.00,,,0.06,WUHU216HW,2013-04-10 12:00:00,
2013-04-10 08:05:00,48.6,43.9,29.98,NNE,23,1.1,1.1,84,0.00,,,0.06,WUHU216HW,2013-04-10 12:05:00,
2013-04-10 08:10:00,48.6,43.9,29.97,NNE,23,0.0,1.1,84,0.00,,,0.06,WUHU216HW,2013-04-10 12:10:00,
2013-04-10 08:15:00,49.0,44.0,29.97,NNE,23,0.0,1.1,83,0.00,,,0.06,WUHU216HW,2013-04-10 12:15:00,
2013-04-10 08:20:00,49.3,44.3,29.98,West,270,0.2,1.1,83,0.00,,,0.06,WUHU216HW,2013-04-10 12:20:00,
2013-04-10 08:25:00,49.3,44.3,29.99,WSW,248,0.0,1.1,83,0.00,,,0.06,WUHU216HW,2013-04-10 12:25:00,
2013-04-10 08:30:00,49.3,44.7,29.99,WNW,293,0.0,1.6,84,0.00,,,0.06,WUHU216HW,2013-04-10 12:30:00,
2013-04-10 08:35:00,49.5,44.5,29.99,SSW,203,0.0,1.6,83,0.00,,,0.06,WUHU216HW,2013-04-10 12:35:00,
2013-04-10 08:40:00,49.5,44.5,29.99,West,270,0.0,1.1,83,0.00,,,0.06,WUHU216HW,2013-04-10 12:40:00,
2013-04-10 08:45:00,49.7,44.6,29.99,WSW,248,0.0,1.1,83,0.00,,,0.06,WUHU216HW,2013-04-10 12:45:00,
2013-04-10 08:50:00,49.9,44.8,29.98,NE,45,0.7,1.1,83,0.00,,,0.06,WUHU216HW,2013-04-10 12:50:00,
2013-04-10 08:55:00,50.0,45.0,29.99,NE,45,0.9,1.1,83,0.00,,,0.06,WUHU216HW,2013-04-10 12:55:00,
2013-04-10 09:00:00,50.2,45.2,29.99,NE,45,0.0,1.1,83,0.00,,,0.06,WUHU216HW,2013-04-10 13:00:00,
2013-04-10 09:05:00,50.4,45.1,29.99,West,270,0.7,1.1,82,0.00,,,0.06,WUHU216HW,2013-04-10 13:05:00,
2013-04-10 09:10:00,50.8,45.5,29.99,NE,45,0.4,1.6,82,0.00,,,0.06,WUHU216HW,2013-04-10 13:10:00,
2013-04-10 09:15:00,50.9,45.6,29.99,NE,45,0.7,1.6,82,0.00,,,0.06,WUHU216HW,2013-04-10 13:15:00,
2013-04-10 09:20:00,51.1,45.8,29.99,North,0,0.4,1.6,82,0.00,,,0.06,WUHU216HW,2013-04-10 13:20:00,
2013-04-10 09:25:00,51.1,46.1,29.99,North,0,0.9,1.6,83,0.00,,,0.06,WUHU216HW,2013-04-10 13:25:00,
2013-04-10 09:30:00,51.5,46.4,29.99,North,0,0.0,1.8,83,0.00,,,0.06,WUHU216HW,2013-04-10 13:30:00,
2013-04-10 09:35:00,51.8,46.5,30.00,NNE,23,1.6,1.8,82,0.00,,,0.06,WUHU216HW,2013-04-10 13:35:00,
2013-04-10 09:40:00,51.8,46.5,30.00,SW,225,0.9,1.6,82,0.00,,,0.06,WUHU216HW,2013-04-10 13:40:00,
2013-04-10 09:45:00,52.0,46.7,30.00,North,0,0.7,1.6,82,0.00,,,0.06,WUHU216HW,2013-04-10 13:45:00,
2013-04-10 09:50:00,52.2,46.9,30.00,NE,45,2.0,2.5,82,0.00,,,0.06,WUHU216HW,2013-04-10 13:50:00,
2013-04-10 09:55:00,52.4,46.7,30.01,NE,45,1.1,2.7,81,0.00,,,0.06,WUHU216HW,2013-04-10 13:55:00,
2013-04-10 10:00:00,52.7,47.1,30.00,ENE,68,3.8,3.8,81,0.00,,,0.06,WUHU216HW,2013-04-10 14:00:00,
2013-04-10 10:05:00,52.7,46.8,30.00,NNE,23,0.4,3.8,80,0.00,,,0.06,WUHU216HW,2013-04-10 14:05:00,
2013-04-10 10:10:00,52.7,46.8,30.00,NE,45,1.6,3.8,80,0.00,,,0.06,WUHU216HW,2013-04-10 14:10:00,
2013-04-10 10:15:00,52.9,47.0,30.00,ENE,68,1.8,2.5,80,0.00,,,0.06,WUHU216HW,2013-04-10 14:15:00,
2013-04-10 10:20:00,52.9,46.6,30.00,North,0,0.2,2.5,79,0.00,,,0.06,WUHU216HW,2013-04-10 14:20:00,
2013-04-10 10:25:00,52.9,46.6,30.00,NNE,23,0.4,2.0,79,0.00,,,0.06,WUHU216HW,2013-04-10 14:25:00,
2013-04-10 10:30:00,53.5,47.2,29.99,North,0,0.4,1.8,79,0.00,,,0.06,WUHU216HW,2013-04-10 14:30:00,
2013-04-10 10:35:00,53.8,47.2,29.99,SW,225,0.0,2.2,78,0.00,,,0.06,WUHU216HW,2013-04-10 14:35:00,
2013-04-10 10:40:00,54.2,47.5,30.00,NNE,23,0.7,2.9,78,0.00,,,0.06,WUHU216HW,2013-04-10 14:40:00,
2013-04-10 10:45:00,54.4,47.3,29.99,ENE,68,0.0,2.9,77,0.00,,,0.06,WUHU216HW,2013-04-10 14:45:00,
2013-04-10 10:50:00,54.5,47.4,29.99,NE,45,1.1,2.7,77,0.00,,,0.06,WUHU216HW,2013-04-10 14:50:00,
2013-04-10 10:55:00,54.7,47.6,30.00,SSW,203,0.7,2.5,77,0.00,,,0.06,WUHU216HW,2013-04-10 14:55:00,
2013-04-10 11:00:00,54.5,47.4,30.01,SE,135,0.4,1.8,77,0.00,,,0.06,WUHU216HW,2013-04-10 15:00:00,
2013-04-10 11:05:00,54.5,47.1,30.01,West,270,0.9,2.9,76,0.00,,,0.06,WUHU216HW,2013-04-10 15:05:00,
2013-04-10 11:10:00,54.4,46.6,30.00,WSW,248,0.4,2.9,75,0.00,,,0.06,WUHU216HW,2013-04-10 15:10:00,
2013-04-10 11:15:00,54.7,47.3,30.01,NE,45,1.6,2.0,76,0.00,,,0.06,WUHU216HW,2013-04-10 15:15:00,
2013-04-10 11:20:00,54.7,47.3,30.01,NNE,23,0.4,1.8,76,0.00,,,0.06,WUHU216HW,2013-04-10 15:20:00,
2013-04-10 11:25:00,54.7,47.3,30.02,NE,45,0.4,1.8,76,0.00,,,0.06,WUHU216HW,2013-04-10 15:25:00,
2013-04-10 11:30:00,54.9,47.1,30.02,ENE,68,0.7,1.8,75,0.00,,,0.06,WUHU216HW,2013-04-10 15:30:00,
2013-04-10 11:35:00,55.1,47.3,30.01,NE,45,0.4,1.8,75,0.00,,,0.06,WUHU216HW,2013-04-10 15:35:00,
2013-04-10 11:40:00,55.3,47.4,30.01,NNE,23,0.9,1.6,75,0.00,,,0.06,WUHU216HW,2013-04-10 15:40:00,
2013-04-10 11:45:00,55.6,47.8,30.01,ESE,113,0.7,2.2,75,0.00,,,0.06,WUHU216HW,2013-04-10 15:45:00,
2013-04-10 11:50:00,55.8,47.6,30.01,NNE,23,2.5,3.4,74,0.00,,,0.06,WUHU216HW,2013-04-10 15:50:00,
2013-04-10 11:55:00,55.8,47.6,30.00,NE,45,1.6,3.4,74,0.00,,,0.06,WUHU216HW,2013-04-10 15:55:00,
2013-04-10 12:00:00,56.0,47.4,30.01,SW,225,1.1,3.1,73,0.00,,,0.06,WUHU216HW,2013-04-10 16:00:00,
2013-04-10 12:05:00,55.8,47.3,30.00,SSW,203,0.4,3.6,73,0.00,,,0.06,WUHU216HW,2013-04-10 16:05:00,
2013-04-10 12:10:00,56.0,47.4,30.00,ENE,68,1.1,3.6,73,0.00,,,0.06,WUHU216HW,2013-04-10 16:10:00,
2013-04-10 12:15:00,56.5,48.0,30.00,SE,135,0.2,1.8,73,0.00,,,0.06,WUHU216HW,2013-04-10 16:15:00,
2013-04-10 12:20:00,56.9,48.2,29.99,SSW,203,1.6,2.0,73,0.00,,,0.06,WUHU216HW,2013-04-10 16:20:00,
2013-04-10 12:25:00,57.4,48.8,29.99,ENE,68,1.1,2.5,73,0.00,,,0.06,WUHU216HW,2013-04-10 16:25:00,
2013-04-10 12:30:00,58.1,49.5,29.99,SW,225,0.9,2.5,73,0.00,,,0.06,WUHU216HW,2013-04-10 16:30:00,
2013-04-10 12:35:00,58.7,49.3,30.00,SW,225,1.3,2.5,71,0.00,,,0.06,WUHU216HW,2013-04-10 16:35:00,
2013-04-10 12:40:00,58.7,49.0,30.00,West,270,0.9,2.5,70,0.00,,,0.06,WUHU216HW,2013-04-10 16:40:00,
2013-04-10 12:45:00,59.0,48.9,30.00,SSE,158,1.6,2.5,69,0.00,,,0.06,WUHU216HW,2013-04-10 16:45:00,
2013-04-10 12:50:00,59.2,49.1,30.00,SSW,203,0.4,3.1,69,0.00,,,0.06,WUHU216HW,2013-04-10 16:50:00,
2013-04-10 12:55:00,59.4,48.9,30.00,South,180,1.1,3.1,68,0.00,,,0.06,WUHU216HW,2013-04-10 16:55:00,
2013-04-10 13:00:00,59.9,49.4,30.00,South,180,0.4,4.0,68,0.00,,,0.06,WUHU216HW,2013-04-10 17:00:00,
2013-04-10 13:05:00,60.1,49.1,30.00,WSW,248,0.7,4.0,67,0.00,,,0.06,WUHU216HW,2013-04-10 17:05:00,
2013-04-10 13:10:00,60.1,49.1,29.99,SE,135,0.7,3.6,67,0.00,,,0.06,WUHU216HW,2013-04-10 17:10:00,
2013-04-10 13:15:00,60.7,49.7,29.99,ENE,68,1.3,3.6,67,0.00,,,0.06,WUHU216HW,2013-04-10 17:15:00,
2013-04-10 13:20:00,61.6,50.5,29.99,South,180,2.5,4.0,67,0.00,,,0.06,WUHU216HW,2013-04-10 17:20:00,
2013-04-10 13:25:00,62.3,51.2,29.99,SSW,203,1.1,4.0,67,0.00,,,0.06,WUHU216HW,2013-04-10 17:25:00,
2013-04-10 13:30:00,62.5,50.1,29.99,SE,135,2.5,3.4,64,0.00,,,0.06,WUHU216HW,2013-04-10 17:30:00,
2013-04-10 13:35:00,62.8,50.9,29.98,East,90,0.9,4.0,65,0.00,,,0.06,WUHU216HW,2013-04-10 17:35:00,
2013-04-10 13:40:00,63.9,51.8,29.98,WNW,293,2.5,4.0,65,0.00,,,0.06,WUHU216HW,2013-04-10 17:40:00,
2013-04-10 13:45:00,64.4,50.7,29.98,SSE,158,1.6,3.8,61,0.00,,,0.06,WUHU216HW,2013-04-10 17:45:00,
2013-04-10 13:50:00,64.6,50.9,29.98,SW,225,0.4,4.0,61,0.00,,,0.06,WUHU216HW,2013-04-10 17:50:00,
2013-04-10 13:55:00,64.8,51.0,29.98,NW,315,0.2,4.0,61,0.00,,,0.06,WUHU216HW,2013-04-10 17:55:00,
2013-04-10 14:00:00,65.5,51.8,29.98,South,180,1.8,2.9,61,0.00,,,0.06,WUHU216HW,2013-04-10 18:00:00,
2013-04-10 14:05:00,66.2,52.0,29.98,NE,45,2.0,2.5,60,0.00,,,0.06,WUHU216HW,2013-04-10 18:05:00,
2013-04-10 14:10:00,66.8,52.0,29.98,SSW,203,1.6,2.5,59,0.00,,,0.06,WUHU216HW,2013-04-10 18:10:00,
2013-04-10 14:15:00,67.0,51.2,29.98,ENE,68,1.8,3.8,57,0.00,,,0.06,WUHU216HW,2013-04-10 18:15:00,
2013-04-10 14:20:00,66.6,50.4,29.99,SW,225,2.9,3.8,56,0.00,,,0.06,WUHU216HW,2013-04-10 18:20:00,
2013-04-10 14:25:00,66.6,50.0,29.99,WSW,248,2.9,4.0,55,0.00,,,0.06,WUHU216HW,2013-04-10 18:25:00,
2013-04-10 14:30:00,66.8,51.0,29.98,North,0,0.7,4.0,57,0.00,,,0.06,WUHU216HW,2013-04-10 18:30:00,
2013-04-10 14:35:00,66.8,50.6,29.98,NNW,338,1.8,3.4,56,0.00,,,0.06,WUHU216HW,2013-04-10 18:35:00,
2013-04-10 14:40:00,66.4,50.8,29.97,WNW,293,1.8,3.4,57,0.00,,,0.06,WUHU216HW,2013-04-10 18:40:00,
2013-04-10 14:45:00,66.2,50.6,29.97,ENE,68,1.6,2.9,57,0.00,,,0.06,WUHU216HW,2013-04-10 18:45:00,
2013-04-10 14:50:00,65.9,50.2,29.97,ESE,113,1.3,2.9,57,0.00,,,0.06,WUHU216HW,2013-04-10 18:50:00,
2013-04-10 14:55:00,65.9,50.7,29.97,ENE,68,0.0,2.7,58,0.00,,,0.06,WUHU216HW,2013-04-10 18:55:00,
2013-04-10 15:00:00,66.2,51.0,29.96,NE,45,1.1,2.9,58,0.00,,,0.06,WUHU216HW,2013-04-10 19:00:00,
2013-04-10 15:05:00,66.2,50.6,29.96,SW,225,0.7,2.9,57,0.00,,,0.06,WUHU216HW,2013-04-10 19:05:00,
2013-04-10 15:10:00,65.7,50.1,29.96,East,90,0.4,2.9,57,0.00,,,0.06,WUHU216HW,2013-04-10 19:10:00,
2013-04-10 15:15:00,65.2,49.5,29.97,ESE,113,0.0,2.9,57,0.00,,,0.06,WUHU216HW,2013-04-10 19:15:00,
2013-04-10 15:20:00,64.8,49.6,29.98,NE,45,1.3,2.2,58,0.00,,,0.06,WUHU216HW,2013-04-10 19:20:00,
2013-04-10 15:25:00,64.4,49.2,29.96,East,90,0.9,1.8,58,0.00,,,0.06,WUHU216HW,2013-04-10 19:25:00,
2013-04-10 15:30:00,64.1,49.0,29.93,East,90,1.8,1.8,58,0.00,,,0.06,WUHU216HW,2013-04-10 19:30:00,
2013-04-10 15:35:00,64.1,49.0,29.94,WSW,248,1.6,2.7,58,0.00,,,0.06,WUHU216HW,2013-04-10 19:35:00,
2013-04-10 15:40:00,64.4,49.8,29.93,East,90,1.1,2.7,59,0.00,,,0.06,WUHU216HW,2013-04-10 19:40:00,
2013-04-10 15:45:00,65.3,49.7,29.92,NW,315,1.3,1.8,57,0.00,,,0.06,WUHU216HW,2013-04-10 19:45:00,
2013-04-10 15:50:00,65.3,49.7,29.92,NNW,338,1.1,3.1,57,0.00,,,0.06,WUHU216HW,2013-04-10 19:50:00,
2013-04-10 15:55:00,66.1,50.4,29.90,ENE,68,0.9,3.6,57,0.00,,,0.06,WUHU216HW,2013-04-10 19:55:00,
2013-04-10 16:00:00,66.8,50.6,29.90,SSE,158,0.9,3.6,56,0.00,,,0.06,WUHU216HW,2013-04-10 20:00:00,
2013-04-10 16:05:00,67.1,50.0,29.90,ESE,113,1.1,3.4,54,0.00,,,0.06,WUHU216HW,2013-04-10 20:05:00,
2013-04-10 16:10:00,67.3,50.0,29.90,ENE,68,0.0,3.4,54,0.00,,,0.06,WUHU216HW,2013-04-10 20:10:00,
2013-04-10 16:15:00,68.0,51.2,29.90,NNE,23,3.6,4.0,55,0.00,,,0.06,WUHU216HW,2013-04-10 20:15:00,
2013-04-10 16:20:00,68.4,51.0,29.91,NE,45,0.0,4.0,54,0.00,,,0.06,WUHU216HW,2013-04-10 20:20:00,
2013-04-10 16:25:00,68.6,51.8,29.91,NNE,23,2.5,2.7,55,0.00,,,0.06,WUHU216HW,2013-04-10 20:25:00,
2013-04-10 16:30:00,68.0,50.2,29.90,NE,45,0.2,2.7,53,0.00,,,0.06,WUHU216HW,2013-04-10 20:30:00,
2013-04-10 16:35:00,67.0,49.8,29.91,NE,45,4.0,4.0,54,0.00,,,0.06,WUHU216HW,2013-04-10 20:35:00,
2013-04-10 16:40:00,66.2,49.6,29.92,NE,45,3.4,4.0,55,0.00,,,0.06,WUHU216HW,2013-04-10 20:40:00,
2013-04-10 16:45:00,65.7,49.5,29.93,NNE,23,0.4,4.0,56,0.00,,,0.06,WUHU216HW,2013-04-10 20:45:00,
2013-04-10 16:50:00,65.2,49.0,29.92,North,0,2.0,3.1,56,0.00,,,0.06,WUHU216HW,2013-04-10 20:50:00,
2013-04-10 16:55:00,64.6,48.4,29.93,East,90,0.4,3.1,56,0.00,,,0.06,WUHU216HW,2013-04-10 20:55:00,
2013-04-10 17:00:00,64.1,48.0,29.93,NE,45,1.1,2.5,56,0.00,,,0.06,WUHU216HW,2013-04-10 21:00:00,
2013-04-10 17:05:00,63.7,48.2,29.93,NNE,23,0.7,3.4,57,0.00,,,0.06,WUHU216HW,2013-04-10 21:05:00,
2013-04-10 17:10:00,63.0,47.4,29.93,NNE,23,0.2,3.4,57,0.00,,,0.06,WUHU216HW,2013-04-10 21:10:00,
2013-04-10 17:15:00,62.8,47.8,29.93,NNE,23,1.1,2.5,58,0.00,,,0.06,WUHU216HW,2013-04-10 21:15:00,
2013-04-10 17:20:00,62.3,47.4,29.93,NE,45,2.5,2.7,58,0.00,,,0.06,WUHU216HW,2013-04-10 21:20:00,
2013-04-10 17:25:00,62.1,47.2,29.93,North,0,0.4,2.7,58,0.00,,,0.06,WUHU216HW,2013-04-10 21:25:00,
2013-04-10 17:30:00,61.7,47.4,29.93,ENE,68,0.9,2.9,59,0.00,,,0.06,WUHU216HW,2013-04-10 21:30:00,
2013-04-10 17:35:00,61.4,47.0,29.94,NNW,338,1.8,2.9,59,0.00,,,0.06,WUHU216HW,2013-04-10 21:35:00,
2013-04-10 17:40:00,61.0,46.6,29.94,NNE,23,0.2,3.4,59,0.00,,,0.06,WUHU216HW,2013-04-10 21:40:00,
2013-04-10 17:45:00,60.8,47.0,29.94,ENE,68,3.4,3.4,60,0.00,,,0.06,WUHU216HW,2013-04-10 21:45:00,
2013-04-10 17:50:00,60.5,46.6,29.93,ESE,113,0.0,3.4,60,0.00,,,0.06,WUHU216HW,2013-04-10 21:50:00,
2013-04-10 17:55:00,60.1,46.3,29.93,NE,45,1.1,2.2,60,0.00,,,0.06,WUHU216HW,2013-04-10 21:55:00,
2013-04-10 18:00:00,59.8,46.4,29.93,NNW,338,0.4,1.3,61,0.00,,,0.06,WUHU216HW,2013-04-10 22:00:00,
2013-04-10 18:05:00,59.4,46.0,29.92,NE,45,0.4,2.7,61,0.00,,,0.06,WUHU216HW,2013-04-10 22:05:00,
2013-04-10 18:10:00,59.0,45.6,29.91,East,90,1.8,2.7,61,0.00,,,0.06,WUHU216HW,2013-04-10 22:10:00,
2013-04-10 18:15:00,58.9,45.5,29.90,South,180,3.4,4.7,61,0.00,,,0.06,WUHU216HW,2013-04-10 22:15:00,
2013-04-10 18:20:00,58.3,44.9,29.92,ENE,68,1.3,4.9,61,0.00,,,0.06,WUHU216HW,2013-04-10 22:20:00,
2013-04-10 18:25:00,58.0,44.7,29.92,NE,45,1.8,4.9,61,0.00,,,0.06,WUHU216HW,2013-04-10 22:25:00,
2013-04-10 18:30:00,57.4,44.1,29.92,WSW,248,0.9,3.6,61,0.00,,,0.06,WUHU216HW,2013-04-10 22:30:00,
2013-04-10 18:35:00,57.2,43.9,29.92,ENE,68,3.1,3.8,61,0.00,,,0.06,WUHU216HW,2013-04-10 22:35:00,
2013-04-10 18:40:00,56.5,43.7,29.92,ENE,68,1.1,3.8,62,0.00,,,0.06,WUHU216HW,2013-04-10 22:40:00,
2013-04-10 18:45:00,56.2,43.3,29.91,NE,45,2.9,3.1,62,0.00,,,0.06,WUHU216HW,2013-04-10 22:45:00,
2013-04-10 18:50:00,55.6,42.8,29.91,NE,45,2.2,3.6,62,0.00,,,0.06,WUHU216HW,2013-04-10 22:50:00,
2013-04-10 18:55:00,55.4,43.0,29.92,NE,45,0.7,3.6,63,0.00,,,0.06,WUHU216HW,2013-04-10 22:55:00,
2013-04-10 19:00:00,55.3,42.9,29.91,NE,45,0.0,2.2,63,0.00,,,0.06,WUHU216HW,2013-04-10 23:00:00,
2013-04-10 19:05:00,55.1,43.1,29.91,NNE,23,1.1,1.8,64,0.00,,,0.06,WUHU216HW,2013-04-10 23:05:00,
2013-04-10 19:10:00,54.5,43.8,29.93,WNW,293,0.4,1.8,67,0.00,,,0.06,WUHU216HW,2013-04-10 23:10:00,
2013-04-10 19:15:00,54.0,43.3,29.92,NE,45,0.4,1.3,67,0.01,,,0.07,WUHU216HW,2013-04-10 23:15:00,
2013-04-10 19:20:00,53.8,43.5,29.92,NE,45,0.0,1.3,68,0.01,,,0.07,WUHU216HW,2013-04-10 23:20:00,
2013-04-10 19:25:00,53.6,43.8,29.92,NE,45,0.0,0.7,69,0.01,,,0.07,WUHU216HW,2013-04-10 23:25:00,
2013-04-10 19:30:00,53.6,43.8,29.93,North,0,1.1,1.1,69,0.01,,,0.07,WUHU216HW,2013-04-10 23:30:00,
2013-04-10 19:35:00,53.3,44.1,29.94,North,0,0.0,1.3,71,0.02,,,0.09,WUHU216HW,2013-04-10 23:35:00,
2013-04-10 19:40:00,52.7,44.0,29.93,East,90,1.1,1.3,72,0.02,,,0.09,WUHU216HW,2013-04-10 23:40:00,
2013-04-10 19:45:00,52.6,43.5,29.93,NNE,23,1.6,1.6,71,0.03,,,0.09,WUHU216HW,2013-04-10 23:45:00,
2013-04-10 19:50:00,52.2,43.5,29.92,North,0,1.6,2.2,72,0.03,,,0.09,WUHU216HW,2013-04-10 23:50:00,
2013-04-10 19:55:00,51.7,44.4,29.92,NNE,23,0.2,2.2,76,0.04,,,0.11,WUHU216HW,2013-04-10 23:55:00,
2013-04-10 20:00:00,51.3,43.7,29.92,ENE,68,0.7,1.8,75,0.04,,,0.11,WUHU216HW,2013-04-11 00:00:00,
2013-04-10 20:05:00,51.1,43.5,29.92,SSE,158,0.0,1.3,75,0.05,,,0.11,WUHU216HW,2013-04-11 00:05:00,
2013-04-10 20:10:00,51.1,43.5,29.93,North,0,0.2,1.6,75,0.05,,,0.11,WUHU216HW,2013-04-11 00:10:00,
2013-04-10 20:15:00,50.9,43.7,29.93,North,0,0.0,1.6,76,0.04,,,0.11,WUHU216HW,2013-04-11 00:15:00,
2013-04-10 20:20:00,50.8,43.8,29.94,North,0,0.0,1.1,77,0.05,,,0.12,WUHU216HW,2013-04-11 00:20:00,
2013-04-10 20:25:00,50.8,44.1,29.95,NNW,338,0.2,1.1,78,0.06,,,0.14,WUHU216HW,2013-04-11 00:25:00,
2013-04-10 20:30:00,50.6,43.9,29.96,ENE,68,0.0,0.4,78,0.08,,,0.16,WUHU216HW,2013-04-11 00:30:00,
2013-04-10 20:35:00,50.6,43.9,29.95,ENE,68,0.0,0.7,78,0.09,,,0.18,WUHU216HW,2013-04-11 00:35:00,
2013-04-10 20:40:00,50.6,43.9,29.95,NNE,23,0.0,0.7,78,0.10,,,0.20,WUHU216HW,2013-04-11 00:40:00,
2013-04-10 20:45:00,50.6,43.9,29.96,NNE,23,0.0,0.4,78,0.10,,,0.20,WUHU216HW,2013-04-11 00:45:00,
2013-04-10 20:50:00,50.6,44.3,29.94,NE,45,0.0,0.4,79,0.10,,,0.20,WUHU216HW,2013-04-11 00:50:00,
2013-04-10 20:55:00,50.6,44.3,29.93,NE,45,0.0,0.0,79,0.09,,,0.20,WUHU216HW,2013-04-11 00:55:00,
2013-04-10 21:00:00,50.6,44.3,29.94,NNE,23,0.0,0.0,79,0.08,,,0.20,WUHU216HW,2013-04-11 01:00:00,
2013-04-10 21:05:00,50.6,44.3,29.94,ENE,68,0.0,0.9,79,0.08,,,0.20,WUHU216HW,2013-04-11 01:05:00,
2013-04-10 21:10:00,50.4,44.1,29.93,ENE,68,0.0,0.9,79,0.08,,,0.20,WUHU216HW,2013-04-11 01:10:00,
2013-04-10 21:15:00,50.4,44.5,29.93,ENE,68,0.0,0.0,80,0.07,,,0.20,WUHU216HW,2013-04-11 01:15:00,
2013-04-10 21:20:00,50.4,44.7,29.93,NW,315,0.4,1.3,81,0.06,,,0.20,WUHU216HW,2013-04-11 01:20:00,
2013-04-10 21:25:00,50.4,44.7,29.94,NNE,23,0.4,1.3,81,0.05,,,0.20,WUHU216HW,2013-04-11 01:25:00,
2013-04-10 21:30:00,50.2,44.9,29.94,ENE,68,0.2,1.1,82,0.04,,,0.20,WUHU216HW,2013-04-11 01:30:00,
2013-04-10 21:35:00,50.2,44.9,29.94,East,90,0.0,1.1,82,0.00,,,0.20,WUHU216HW,2013-04-11 01:35:00,
2013-04-10 21:40:00,50.4,45.1,29.93,NNE,23,0.7,1.1,82,0.00,,,0.20,WUHU216HW,2013-04-11 01:40:00,
2013-04-10 21:45:00,50.4,45.1,29.93,NNE,23,0.4,1.1,82,0.00,,,0.20,WUHU216HW,2013-04-11 01:45:00,
2013-04-10 21:50:00,50.4,45.1,29.92,NNE,23,0.4,1.1,82,0.00,,,0.20,WUHU216HW,2013-04-11 01:50:00,
2013-04-10 21:55:00,50.4,45.1,29.92,NNE,23,0.0,0.9,82,0.00,,,0.20,WUHU216HW,2013-04-11 01:55:00,
2013-04-10 22:00:00,50.4,45.1,29.93,NNE,23,0.0,0.4,82,0.00,,,0.20,WUHU216HW,2013-04-11 02:00:00,
2013-04-10 22:05:00,50.6,45.3,29.93,NE,45,0.0,0.0,82,0.00,,,0.20,WUHU216HW,2013-04-11 02:05:00,
2013-04-10 22:10:00,50.6,45.3,29.92,NE,45,0.0,0.0,82,0.00,,,0.20,WUHU216HW,2013-04-11 02:10:00,
2013-04-10 22:15:00,50.6,45.3,29.91,NE,45,0.0,0.0,82,0.00,,,0.20,WUHU216HW,2013-04-11 02:15:00,
2013-04-10 22:20:00,50.8,45.5,29.91,NE,45,0.4,1.1,82,0.00,,,0.20,WUHU216HW,2013-04-11 02:20:00,
2013-04-10 22:25:00,50.8,45.7,29.91,NE,45,0.9,1.1,83,0.00,,,0.20,WUHU216HW,2013-04-11 02:25:00,
2013-04-10 22:30:00,50.8,45.7,29.91,NE,45,0.0,1.1,83,0.00,,,0.20,WUHU216HW,2013-04-11 02:30:00,
2013-04-10 22:35:00,50.6,45.5,29.91,NE,45,0.0,1.1,83,0.00,,,0.20,WUHU216HW,2013-04-11 02:35:00,
2013-04-10 22:40:00,50.6,45.5,29.90,ENE,68,0.0,1.6,83,0.00,,,0.20,WUHU216HW,2013-04-11 02:40:00,
2013-04-10 22:45:00,50.6,45.5,29.90,ENE,68,0.0,1.6,83,0.00,,,0.20,WUHU216HW,2013-04-11 02:45:00,
2013-04-10 22:50:00,50.6,45.5,29.91,NNW,338,0.0,0.4,83,0.00,,,0.20,WUHU216HW,2013-04-11 02:50:00,
2013-04-10 22:55:00,50.6,45.5,29.91,NNW,338,0.0,0.4,83,0.00,,,0.20,WUHU216HW,2013-04-11 02:55:00,
2013-04-10 23:00:00,50.6,45.5,29.91,NNW,338,0.0,0.4,83,0.00,,,0.20,WUHU216HW,2013-04-11 03:00:00,
2013-04-10 23:05:00,50.6,45.5,29.91,NNW,338,0.0,0.4,83,0.00,,,0.20,WUHU216HW,2013-04-11 03:05:00,
2013-04-10 23:10:00,50.6,45.5,29.91,North,0,0.4,0.7,83,0.00,,,0.20,WUHU216HW,2013-04-11 03:10:00,
2013-04-10 23:15:00,50.8,45.7,29.91,NNE,23,0.4,0.9,83,0.00,,,0.20,WUHU216HW,2013-04-11 03:15:00,
2013-04-10 23:20:00,50.8,46.1,29.90,NNE,23,0.4,1.1,84,0.00,,,0.20,WUHU216HW,2013-04-11 03:20:00,
2013-04-10 23:25:00,50.6,45.9,29.90,NNE,23,0.4,1.1,84,0.00,,,0.20,WUHU216HW,2013-04-11 03:25:00,
2013-04-10 23:30:00,50.6,45.9,29.92,NE,45,0.0,0.9,84,0.00,,,0.20,WUHU216HW,2013-04-11 03:30:00,
2013-04-10 23:35:00,50.6,45.9,29.93,NE,45,0.0,0.7,84,0.00,,,0.20,WUHU216HW,2013-04-11 03:35:00,
2013-04-10 23:40:00,50.6,45.9,29.93,NE,45,0.0,0.0,84,0.00,,,0.20,WUHU216HW,2013-04-11 03:40:00,
2013-04-10 23:45:00,50.6,45.9,29.94,NE,45,0.0,0.0,84,0.00,,,0.20,WUHU216HW,2013-04-11 03:45:00,
2013-04-10 23:50:00,50.6,45.9,29.93,NE,45,0.0,0.0,84,0.00,,,0.20,WUHU216HW,2013-04-11 03:50:00,
2013-04-10 23:55:00,50.4,45.7,29.93,NE,45,0.0,0.0,84,0.00,,,0.20,WUHU216HW,2013-04-11 03:55:00,